Regional Weather Roundup
Issued by NWS

Home | Current Version | Previous Version | Graphics & Text | Print | Product List | Glossary On
Versions: 1 2 3 4 5 6 7 8 9 10 11 12 13 14 15 16 17 18 19 20 21 22 23 24 25 26 27 28
000
ASUS45 KCYS 181810
RWRWY

WYOMING REGIONAL WEATHER ROUNDUP
NATIONAL WEATHER SERVICE CHEYENNE WY
1200 PM MDT WED OCT 18 2017

NOTE:  "FAIR" INDICATES FEW OR NO CLOUDS BELOW 12,000 FEET
WITH NO SIGNIFICANT WEATHER AND/OR OBSTRUCTIONS TO VISIBILITY.

WYZ001-181900-
YELLOWSTONE NATIONAL PARK

CITY           SKY/WX    TMP DP  RH WIND       PRES   REMARKS
LK YELLOWSTONE   N/A     50  18  28 VRB5      30.25S
W YELLOWSTONE  NOT AVBL

$$
WYZ002>013-054>058-071-098>099-181900-
NORTHERN WYOMING

CITY           SKY/WX    TMP DP  RH WIND       PRES   REMARKS
JACKSON        FAIR      57  22  25 SW13G22   30.24F
CODY           FAIR      67  14  13 SW14      30.08F
GREYBULL       FAIR      60  26  27 S6        30.05F
6HR MIN TEMP:  35; 6HR MAX TEMP:  60;

WORLAND        FAIR      63  28  26 W5        30.06F
6HR MIN TEMP:  32; 6HR MAX TEMP:  63;

SHERIDAN       FAIR      60  28  29 SE12G20   30.05F
6HR MIN TEMP:  37; 6HR MAX TEMP:  60;

BUFFALO        FAIR      59  21  23 SE23G29   30.08F
6HR MIN TEMP:  42; 6HR MAX TEMP:  59;

GILLETTE       FAIR      56  26  31 SE7       30.10F
6HR MIN TEMP:  37; 6HR MAX TEMP:  56;

HULETT         FAIR      55  23  28 CALM      30.11F
NEWCASTLE      FAIR      63  23  22 CALM      30.11F

$$
WYZ014>020-022>026-101>103-181900-
CENTRAL WYOMING

CITY           SKY/WX    TMP DP  RH WIND       PRES   REMARKS
BIG PINEY      FAIR      54  13  19 VRB3      30.29F
6HR MIN TEMP:  23; 6HR MAX TEMP:  54;

PINEDALE       FAIR      54  14  20 CALM      30.29F
DUBOIS         FAIR      57   7  13 W18G25    30.19F
LANDER         FAIR      63  18  17 E5        30.13F
6HR MIN TEMP:  38; 6HR MAX TEMP:  63;

RIVERTON       FAIR      64  14  14 W6        30.13F
6HR MIN TEMP:  43; 6HR MAX TEMP:  64;

CASPER         FAIR      64  14  14 SW15      30.14S
6HR MIN TEMP:  39; 6HR MAX TEMP:  64;

DOUGLAS        FAIR      67  15  13 W9        30.13R
6HR MIN TEMP:  39; 6HR MAX TEMP:  67;


$$
WYZ021-027>030-104>119-181900-
SOUTHERN WYOMING

CITY           SKY/WX    TMP DP  RH WIND       PRES   REMARKS
EVANSTON       FAIR      60  12  15 SW7       30.30S
6HR MIN TEMP:  36; 6HR MAX TEMP:  60;

KEMMERER       FAIR      57  14  18 W10G16    30.30F
FORT BRIDGER   FAIR      64  10  12 W12G17    30.31F
ROCK SPRINGS   FAIR      58  11  15 W12       30.28R
6HR MIN TEMP:  37; 6HR MAX TEMP:  58;

DIXON          FAIR      63   9  12 SW12G17   30.31S
RAWLINS        FAIR      61   9  12 W21       30.25S
6HR MIN TEMP:  35; 6HR MAX TEMP:  61;

SARATOGA       FAIR      64   9  11 SW18G25   30.27S
LARAMIE        FAIR      64   8  11 NE3       30.25R
6HR MIN TEMP:  34; 6HR MAX TEMP:  64;

CHEYENNE       FAIR      69   9   9 W12G23    30.20R
6HR MIN TEMP:  52; 6HR MAX TEMP:  69;

TORRINGTON     FAIR      71  12  10 VRB6      30.10F
6HR MIN TEMP:  48; 6HR MAX TEMP:  71;

PINE BLUFFS    FAIR      70  12  11 N10G17    30.16S

$$




USA.gov is the U.S. government's official web portal to all federal, state and local government web resources and services.